Location: ??????????
(41.2581°N, 22.8006°E)
Time: 00:41:18
(UTC+00:00)

Cosmos 2058 Rocket - Pass Details

Date: 13 December 2025
Orbit: 603 x 633 km, 82.5° (Epoch: 19 January)

Event Time Altitude Azimuth Distance (km) Brightness Sun altitude
Rises 16:37:56 0° 190° (S) 2,910 6.9 -17.7°
Reaches altitude 10° 16:40:10 10° 192° (SSW) 2,008 6.0 -18.1°
Maximum altitude 16:44:37 75° 278° (W) 659 3.2 -18.9°
Drops below altitude 10° 16:49:07 10° 4° (N) 2,024 5.5 -19.7°
Enters shadow 16:49:23 - 5° (N) 2,132 5.6 -19.8°
